GSAT 17

导读

GSAT-17是印度空间研究组织(ISRO)研制的通信卫星,于2017年6月28日发射升空。它定点于地球静止轨道,主要覆盖印度本土及周边区域,承担通信广播、气象数据中继、灾害应急通信等服务,搭载了常规C波段、扩展C波段、Ku波段和S波段转发器,设计服役时长约15年,目前仍在轨运行,是印度GSAT系列通信卫星组网的重要成员,支撑印度本土卫星通信基础设施建设。

Basic Information
目录编号:
42815
目录名称:
GSAT 17
国际标识:
2017-040B
轨道中心:
EARTH
卫星名称:
GSAT 17
卫星全名:
--
卫星状态:
在轨 (已飞行3276 天)
发射日期:
2017-06-28 UTC
国别 :
印度 (IN)
星等 :
--
Orbit Information
数据来源 国际轨道数据 AOE轨道数据
星历时间 2026-06-17T07:43:31+0800
16小时前
查看轨道信息
2026-06-17T04:00:00+0800
20小时前
查看轨道信息
半长轴 42165.822km 42165.149km
偏心率 0.0002002 0.0002063
轨道倾角 0.019° 0.018°
近地点辐角 288.612° 298.170°
升交点赤经 18.107° 14.921°
平近点角 47.908° 345.498°
近地点 35779.243km 35778.313km
远地点 35796.127km 35795.711km
周期 1436.153分钟 1436.118分钟
每日圈数 1.002679 1.002703
Detailed Information
使用方式:
暂无
2D Orbit Map
3D Orbit Map
Orbit Altitude Analysis Chart
Orbit Inclination Analysis Chart
Orbit Comprehensive Analysis Chart
View Comprehensive Chart